ETD454 OMAA-YSSY

Flight info

Callsign ETD454
Flight time N/A
Altitude 29000
Route KANIP N318 TOLDA P570 EMURU M300 GOLBA/N0505F310 M300 VASTU P895 BIKOK M641 UBKAT/N0500F330 M641 DOGAR DCT 05S090E 10S094E 16S100E/N0489F350 DCT IKASA DCT 27S111E DCT POKIP DCT 31S118E DCT SORTU DCT 33S123E 3330S12500E/N0479F370 DCT MOSLA Y135 TEDUS J15 AD H247 CULIN Y59 RIVET
Aircraft B77W/H-SDE1E2E3FGHIJ2J3J4J5M1RWXY/LB1D1

Departure

Time 2026-04-29 20:21
Airport Zayed International Airport (OMAA)

Arrival

Time N/A
Airport Sydney Kingsford Smith International Airport (YSSY)
Time Latitude Longitude Altitude Speed Heading
2026-04-29 19:22 24.45003 54.64424 84 ft 0 kts 321°
2026-04-29 20:01 24.44991 54.64434 87 ft 4 kts 319°
2026-04-29 20:01 24.44971 54.64454 85 ft 4 kts 315°
2026-04-29 20:01 24.44952 54.64475 85 ft 4 kts 312°
2026-04-29 20:02 24.44934 54.64497 85 ft 4 kts 310°
2026-04-29 20:02 24.44916 54.64520 86 ft 4 kts 313°
2026-04-29 20:02 24.44897 54.64539 86 ft 4 kts 333°
2026-04-29 20:02 24.44881 54.64548 86 ft 4 kts 325°
2026-04-29 20:03 24.44855 54.64575 86 ft 4 kts 302°
2026-04-29 20:03 24.44844 54.64602 86 ft 4 kts 284°
2026-04-29 20:03 24.44837 54.64630 83 ft 4 kts 289°
2026-04-29 20:03 24.44827 54.64657 85 ft 4 kts 296°
2026-04-29 20:04 24.44814 54.64683 85 ft 4 kts 303°
2026-04-29 20:04 24.44798 54.64707 86 ft 4 kts 307°
2026-04-29 20:04 24.44791 54.64718 86 ft 0 kts 306°
2026-04-29 20:09 24.44791 54.64717 108 ft 0 kts 306°
2026-04-29 20:09 24.44808 54.64691 84 ft 9 kts 305°
2026-04-29 20:10 24.44837 54.64627 84 ft 10 kts 290°
2026-04-29 20:10 24.44842 54.64556 85 ft 10 kts 248°
2026-04-29 20:10 24.44781 54.64534 83 ft 10 kts 169°
2026-04-29 20:10 24.44718 54.64565 86 ft 10 kts 147°
2026-04-29 20:11 24.44664 54.64612 84 ft 10 kts 134°
2026-04-29 20:11 24.44619 54.64671 86 ft 10 kts 129°
2026-04-29 20:11 24.44573 54.64724 85 ft 8 kts 139°
2026-04-29 20:11 24.44557 54.64732 84 ft 1 kts 165°
2026-04-29 20:12 24.44546 54.64731 85 ft 3 kts 189°
2026-04-29 20:12 24.44504 54.64696 86 ft 13 kts 219°
2026-04-29 20:12 24.44435 54.64635 83 ft 13 kts 217°
2026-04-29 20:12 24.44364 54.64575 85 ft 13 kts 216°
2026-04-29 20:13 24.44293 54.64516 85 ft 13 kts 216°
2026-04-29 20:13 24.44212 54.64534 82 ft 13 kts 134°
2026-04-29 20:13 24.44158 54.64612 85 ft 13 kts 128°
2026-04-29 20:13 24.44102 54.64690 86 ft 13 kts 128°
2026-04-29 20:14 24.44044 54.64765 85 ft 13 kts 141°
2026-04-29 20:14 24.43961 54.64744 83 ft 13 kts 217°
2026-04-29 20:14 24.43890 54.64766 83 ft 12 kts 131°
2026-04-29 20:14 24.43836 54.64838 86 ft 12 kts 128°
2026-04-29 20:15 24.43785 54.64910 85 ft 12 kts 127°
2026-04-29 20:15 24.43733 54.64983 84 ft 12 kts 128°
2026-04-29 20:15 24.43681 54.65057 84 ft 12 kts 128°
2026-04-29 20:15 24.43629 54.65129 85 ft 12 kts 128°
2026-04-29 20:16 24.43577 54.65203 83 ft 12 kts 128°
2026-04-29 20:16 24.43512 54.65294 82 ft 21 kts 128°
2026-04-29 20:16 24.43420 54.65422 86 ft 21 kts 128°
2026-04-29 20:16 24.43329 54.65551 83 ft 21 kts 128°
2026-04-29 20:17 24.43238 54.65679 84 ft 21 kts 127°
2026-04-29 20:17 24.43148 54.65806 85 ft 21 kts 128°
2026-04-29 20:17 24.43056 54.65936 85 ft 21 kts 128°
2026-04-29 20:17 24.42965 54.66063 83 ft 21 kts 128°
2026-04-29 20:18 24.42874 54.66191 86 ft 21 kts 128°
2026-04-29 20:18 24.42784 54.66319 86 ft 20 kts 127°
2026-04-29 20:18 24.42700 54.66436 85 ft 20 kts 128°
2026-04-29 20:18 24.42617 54.66555 85 ft 20 kts 128°
2026-04-29 20:19 24.42532 54.66674 83 ft 20 kts 128°
2026-04-29 20:19 24.42445 54.66797 85 ft 20 kts 128°
2026-04-29 20:19 24.42354 54.66848 85 ft 15 kts 198°
2026-04-29 20:19 24.42268 54.66784 85 ft 15 kts 218°
2026-04-29 20:20 24.42201 54.66724 67 ft 9 kts 229°
2026-04-29 20:20 24.42207 54.66670 81 ft 0 kts 303°
2026-04-29 20:20 24.42207 54.66669 81 ft 1 kts 303°
2026-04-29 20:20 24.42285 54.66556 84 ft 50 kts 308°
2026-04-29 20:21 24.42670 54.66014 85 ft 129 kts 308°
2026-04-29 20:21 24.43373 54.65022 94 ft 198 kts 309°
2026-04-29 20:21 24.44274 54.63753 608 ft 212 kts 309°
2026-04-29 20:21 24.45167 54.62485 1524 ft 210 kts 311°
2026-04-29 20:22 24.46062 54.61193 2276 ft 214 kts 311°
2026-04-29 20:22 24.47016 54.59876 2789 ft 226 kts 312°
2026-04-29 20:22 24.48018 54.58496 2986 ft 236 kts 311°
2026-04-29 20:22 24.49049 54.57049 3255 ft 245 kts 311°
2026-04-29 20:23 24.50114 54.55545 3581 ft 253 kts 310°
2026-04-29 20:23 24.51204 54.54000 4005 ft 258 kts 310°
2026-04-29 20:23 24.52308 54.52434 4547 ft 260 kts 309°
2026-04-29 20:23 24.53416 54.50861 5051 ft 262 kts 308°
2026-04-29 20:24 24.54575 54.49221 5024 ft 281 kts 308°
2026-04-29 20:24 24.55776 54.47521 5382 ft 288 kts 308°
2026-04-29 20:24 24.57010 54.45775 5915 ft 292 kts 307°
2026-04-29 20:24 24.58268 54.44007 6424 ft 294 kts 309°
2026-04-29 20:25 24.59857 54.42591 6786 ft 301 kts 337°
2026-04-29 20:25 24.61915 54.42172 7221 ft 306 kts
2026-04-29 20:25 24.63955 54.42829 7683 ft 309 kts 29°
2026-04-29 20:25 24.65819 54.44055 8040 ft 316 kts 31°
2026-04-29 20:26 24.67701 54.45338 8496 ft 320 kts 31°
2026-04-29 20:26 24.69610 54.46625 9026 ft 323 kts 31°
2026-04-29 20:26 24.71548 54.47922 9516 ft 327 kts 31°
2026-04-29 20:26 24.73354 54.49434 9841 ft 330 kts 52°
2026-04-29 20:27 24.74472 54.51615 10177 ft 329 kts 70°
2026-04-29 20:27 24.75058 54.53181 10261 ft 340 kts 69°
2026-04-29 20:27 24.76347 54.56456 10435 ft 363 kts 68°
2026-04-29 20:27 24.77388 54.59059 10570 ft 380 kts 68°
2026-04-29 20:28 24.78477 54.61777 10702 ft 397 kts 68°
2026-04-29 20:28 24.79569 54.64616 10890 ft 405 kts 73°
2026-04-29 20:28 24.79964 54.67681 11067 ft 410 kts 96°
2026-04-29 20:28 24.79449 54.70445 11526 ft 406 kts 113°
2026-04-29 20:29 24.78389 54.73313 11995 ft 407 kts 115°
2026-04-29 20:29 24.77125 54.76089 12329 ft 406 kts 129°
2026-04-29 20:29 24.75108 54.78213 12758 ft 402 kts 150°
2026-04-29 20:29 24.72569 54.79449 13362 ft 397 kts 168°
2026-04-29 20:30 24.69844 54.79861 13871 ft 397 kts 181°
2026-04-29 20:30 24.67115 54.79482 14235 ft 396 kts 198°
2026-04-29 20:30 24.64531 54.78529 14517 ft 397 kts 197°
2026-04-29 20:30 24.61725 54.78178 14719 ft 410 kts 176°
2026-04-29 20:31 24.58981 54.78958 15144 ft 418 kts 159°
2026-04-29 20:31 24.56458 54.80601 15584 ft 428 kts 142°
2026-04-29 20:31 24.54289 54.82863 15865 ft 434 kts 138°
2026-04-29 20:31 24.52128 54.85219 16208 ft 440 kts 139°
2026-04-29 20:32 24.49944 54.87590 16675 ft 442 kts 139°
2026-04-29 20:32 24.47744 54.89954 17118 ft 446 kts 139°
2026-04-29 20:32 24.45500 54.92341 17503 ft 450 kts 140°
2026-04-29 20:32 24.44000 54.93929 17765 ft 453 kts 140°
2026-04-29 20:33 24.40941 54.97152 18283 ft 459 kts 140°
2026-04-29 20:33 24.38630 54.99584 18665 ft 461 kts 140°
2026-04-29 20:33 24.36311 55.02024 19074 ft 463 kts 140°
2026-04-29 20:33 24.33978 55.04476 19444 ft 466 kts 140°
2026-04-29 20:34 24.31717 55.07055 19769 ft 474 kts 131°
2026-04-29 20:34 24.29950 55.10143 20074 ft 482 kts 121°
2026-04-29 20:34 24.28458 55.13306 20420 ft 485 kts 121°
2026-04-29 20:34 24.26896 55.16607 20752 ft 488 kts 121°
2026-04-29 20:35 24.25304 55.19859 21065 ft 491 kts 122°
2026-04-29 20:35 24.23648 55.23140 21401 ft 494 kts 123°
2026-04-29 20:35 24.21957 55.26431 21730 ft 497 kts 123°
2026-04-29 20:35 24.20251 55.29734 22018 ft 500 kts 123°
2026-04-29 20:36 24.18536 55.33061 22387 ft 501 kts 123°
2026-04-29 20:36 24.16878 55.36428 22752 ft 505 kts 119°
2026-04-29 20:36 24.15440 55.39955 23031 ft 510 kts 116°
2026-04-29 20:36 24.14115 55.43583 23287 ft 514 kts 115°
2026-04-29 20:37 24.12808 55.47230 23534 ft 517 kts 115°
2026-04-29 20:37 24.11476 55.50848 23760 ft 519 kts 115°
2026-04-29 20:37 24.10088 55.54496 23983 ft 521 kts 116°
2026-04-29 20:37 24.08669 55.58151 24213 ft 523 kts 116°
2026-04-29 20:38 24.07237 55.61826 24439 ft 525 kts 116°
2026-04-29 20:38 24.05769 55.65495 24627 ft 527 kts 119°
2026-04-29 20:38 24.04103 55.69067 24823 ft 528 kts 121°
2026-04-29 20:38 24.02384 55.72623 25023 ft 530 kts 121°
2026-04-29 20:39 24.00650 55.76197 25236 ft 532 kts 121°
2026-04-29 20:39 23.98923 55.79771 25430 ft 534 kts 121°
2026-04-29 20:39 23.97191 55.83379 25639 ft 536 kts 121°
2026-04-29 20:39 23.95460 55.87000 25783 ft 538 kts 121°
2026-04-29 20:40 23.93724 55.90639 25952 ft 540 kts 121°
2026-04-29 20:40 23.91984 55.94284 26165 ft 540 kts 121°
2026-04-29 20:40 23.90240 55.97932 26424 ft 540 kts 121°
2026-04-29 20:40 23.88522 56.01520 26690 ft 539 kts 121°
2026-04-29 20:41 23.86760 56.05192 26928 ft 539 kts 121°
2026-04-29 20:41 23.85043 56.08771 27243 ft 537 kts 121°
2026-04-29 20:41 23.83310 56.12381 27515 ft 537 kts 121°
2026-04-29 20:41 23.81573 56.15995 27668 ft 539 kts 121°
2026-04-29 20:42 23.79827 56.19626 27871 ft 539 kts 121°
2026-04-29 20:42 23.78087 56.23245 28126 ft 538 kts 120°
2026-04-29 20:42 23.76346 56.26865 28361 ft 538 kts 120°
2026-04-29 20:42 23.74606 56.30480 28596 ft 538 kts 120°
2026-04-29 20:43 23.72856 56.34112 28772 ft 539 kts 120°
2026-04-29 20:43 23.71107 56.37741 28936 ft 540 kts 120°
2026-04-29 20:43 23.69352 56.41374 29145 ft 540 kts 120°
2026-04-29 20:43 23.67601 56.44997 29483 ft 537 kts 120°
2026-04-29 20:44 23.65865 56.48589 29804 ft 535 kts 120°
2026-04-29 20:44 23.64123 56.52191 29846 ft 537 kts 120°
2026-04-29 20:44 23.60653 56.59355 29863 ft 538 kts 120°
2026-04-29 20:45 23.57156 56.66567 29871 ft 537 kts 120°
2026-04-29 20:45 23.53658 56.73767 29867 ft 537 kts 120°
2026-04-29 20:46 23.50165 56.80948 29873 ft 536 kts 120°
2026-04-29 20:46 23.47262 56.86910 29877 ft 535 kts 120°
2026-04-29 20:47 23.43776 56.94060 29883 ft 533 kts 120°
2026-04-29 20:47 23.40297 57.01182 29885 ft 533 kts 120°
2026-04-29 20:48 23.36825 57.08306 29886 ft 533 kts 119°
2026-04-29 20:48 23.33520 57.15532 29874 ft 532 kts 118°
2026-04-29 20:49 23.30299 57.22769 29884 ft 531 kts 117°
2026-04-29 20:49 23.27048 57.30001 29902 ft 532 kts 118°
2026-04-29 20:50 23.23784 57.37186 29905 ft 533 kts 118°
2026-04-29 20:50 23.20492 57.44411 29907 ft 533 kts 118°
2026-04-29 20:51 23.17197 57.51648 29904 ft 533 kts 118°
2026-04-29 20:51 23.13898 57.58871 29905 ft 533 kts 118°
2026-04-29 20:52 23.10603 57.66081 29897 ft 532 kts 118°
2026-04-29 20:52 23.07312 57.73273 29885 ft 532 kts 118°
2026-04-29 20:53 23.04019 57.80454 29890 ft 530 kts 118°
2026-04-29 20:53 23.00737 57.87617 29874 ft 530 kts 118°
2026-04-29 20:54 22.95794 57.98371 29870 ft 530 kts 118°
2026-04-29 20:55 22.92511 58.05477 29868 ft 530 kts 118°
2026-04-29 20:55 22.89208 58.12620 29861 ft 530 kts 118°
2026-04-29 20:56 22.85899 58.19782 29854 ft 530 kts 118°